Flag for U.S.A. Weather past 2 weeks in Mobile, Alabama, U.S.A.

Now
68 °F

Fog.


Feels Like: 68 °F
Forecast: 63 / 78 °F
Wind: No wind

Location: Mobile Downtown Airport


UV Index: 7 (High)

Visibility: 0 mi


Pressure: 29.99 "Hg

Humidity: 100%

Dew point: 68 °F

Location of MobileLocation

Historic Weather in Mobile

°F

Mobile temperature yesterday

Maximum temperature yesterday: 81 °F (at 2:53 PM)
Minimum temperature yesterday: 59 °F (at 5:53 AM)
Average temperature yesterday: 70 °F

Past Weeks' High & Low Weather Summary

 TemperatureHumidityPressure
High81 °F (Apr 23, 2:53 PM)100% (Apr 12, 1:58 AM)30.29 "Hg (Apr 12, 1:58 AM)
Low41 °F (Apr 16, 2:53 AM)25% (Apr 9, 4:53 PM)29.77 "Hg (Apr 14, 8:04 PM)
Average64 °F76%30.09 "Hg
* Reported Apr 9 7:53 AM — Apr 24 7:53 AM, Mobile, Weather by CustomWeather, © 2014

Note: Actual official high and low records may vary slightly from our data, if they occured in-between our weather recording intervals... More about our weather records

Advertising

Historic Weather Conditions — Data for Previous 24 hours

 ConditionsComfort  
Time TempWeatherWind HumidityBarometerVisibility
7:53 AM
Apr 24
68 °FFog.No wind100%29.99 "Hg0 mi
6:53 AM67 °FFog.3 mph97%29.96 "Hg0 mi
5:53 AM61 °FFog.No wind97%29.96 "Hg1 mi
5:04 AM61 °FFog.No wind97%29.94 "Hg3 mi
3:53 AM61 °FFog.No wind97%29.93 "Hg4 mi
2:53 AM62 °FFog.No wind93%29.93 "Hg4 mi
1:53 AM62 °FFog.No wind96%29.93 "Hg4 mi
12:53 AM64 °FFog.No wind94%29.93 "Hg1 mi
11:53 PM
Apr 23
66 °FClear.3 mph93%29.94 "Hg10 mi
10:53 PM65 °FClear.No wind94%29.94 "Hg8 mi
9:53 PM69 °FClear.3 mph87%29.94 "Hg10 mi
8:53 PM70 °FClear.3 mph84%29.93 "Hg10 mi
7:53 PM72 °FPassing clouds.3 mph76%29.91 "Hg10 mi
6:53 PM75 °FPassing clouds.5 mph64%29.90 "Hg10 mi
5:53 PM75 °FScattered clouds.10 mph74%29.89 "Hg10 mi
4:53 PM79 °FScattered clouds.9 mph65%29.89 "Hg10 mi
3:53 PM79 °FScattered clouds.9 mph62%29.90 "Hg10 mi
2:53 PM81 °FScattered clouds.9 mph56%29.92 "Hg10 mi
1:53 PM79 °FScattered clouds.7 mph54%29.94 "Hg10 mi
12:53 PM80 °FScattered clouds.7 mph52%29.95 "Hg10 mi
11:53 AM78 °FScattered clouds.5 mph60%29.98 "Hg10 mi
10:53 AM74 °FScattered clouds.5 mph71%29.99 "Hg10 mi
9:53 AM68 °FFog.5 mph84%29.99 "Hg6 mi
8:53 AM67 °FFog.No wind87%29.98 "Hg8 mi
Weather by CustomWeather, © 2014

See weather overview